Home   Weather   Little Rock   Past weeks
Flag for USA

Past Weather in Little Rock, Arkansas, USA — Yesterday and Last 2 Weeks

Now
62 °F

Mostly cloudy.


Feels Like: 62 °F
Forecast: 86 / 64 °F
Wind: 3 mph from South

Location: Adams Field

Current Time: May 22, 2019 at 3:58:21 am

Latest Report: May 22, 2019 at 2:53 am


Visibility: 10 mi

Pressure: 29.80 "Hg

Humidity: 93%

Dew Point: 60 °F

Location of Little RockLocation

Past Weather in Little Rock — Graph

°F

Little Rock Temperature Yesterday

Maximum temperature yesterday: 87 °F (at 3:53 pm)
Minimum temperature yesterday: 60 °F (at 11:36 pm)
Average temperature yesterday: 72 °F

High & Low Weather Summary for the Past Weeks

 TemperatureHumidityPressure
High87 °F (May 15, 2:53 pm)97% (May 8, 5:11 pm)30.14 "Hg (May 8, 5:11 pm)
Low50 °F (May 13, 5:53 am)35% (May 13, 1:53 pm)29.63 "Hg (May 21, 3:53 pm)
Average69 °F78%29.90 "Hg
* Reported May 7 1:53 am — May 22 1:53 am, Little Rock. Weather by CustomWeather, © 2019

Note: Actual official high and low records may vary slightly from our data, if they occured in-between our weather recording intervals... More about our weather records

Advertising

Little Rock Weather History for the Previous 24 Hours

Scroll right to see more
 ConditionsComfort  
Time TempWeatherWind HumidityBarometerVisibility
1:53 am
Wed, May 22
61 °FMostly cloudy.No wind97%29.80 "Hg10 mi
1:23 am61 °FLight rain. Overcast.5 mph97%29.81 "Hg10 mi
1:03 am61 °FMostly cloudy.3 mph93%29.80 "Hg10 mi
12:27 am61 °FOvercast.5 mph90%29.79 "Hg7 mi
12:10 am61 °FLight rain. Fog.7 mph90%29.79 "Hg4 mi
11:53 pm
Tue, May 21
60 °FStrong thunderstorms. Fog.8 mph93%29.82 "Hg2 mi
11:36 pm60 °FThunderstorms. Fog.6 mph96%29.81 "Hg5 mi
10:59 pm61 °FStrong thunderstorms. Fog.5 mph93%29.79 "Hg2 mi
10:32 pm61 °FRain. Fog.No wind90%29.76 "Hg6 mi
9:53 pm62 °FLight rain. Fog.5 mph86%29.76 "Hg4 mi
8:53 pm63 °FLight rain. Overcast.7 mph84%29.75 "Hg10 mi
8:26 pm65 °FThunderstorms. Overcast.13 mph78%29.76 "Hg10 mi
7:53 pm66 °FMostly cloudy.6 mph73%29.71 "Hg10 mi
6:53 pm68 °FPartly sunny.13 mph76%29.72 "Hg10 mi
5:53 pm68 °FMore clouds than sun.8 mph78%29.70 "Hg10 mi
4:53 pm67 °FLight rain. Cloudy.13 mph81%29.69 "Hg7 mi
3:53 pm87 °FBroken clouds.20 mph51%29.63 "Hg10 mi
2:53 pm86 °FScattered clouds.18 mph55%29.65 "Hg10 mi
1:53 pm84 °FPartly sunny.18 mph57%29.68 "Hg10 mi
12:53 pm84 °FPartly sunny.17 mph59%29.71 "Hg10 mi
11:53 am82 °FPartly sunny.15 mph63%29.73 "Hg10 mi
10:53 am82 °FMostly cloudy.15 mph65%29.75 "Hg10 mi
9:53 am77 °FMostly cloudy.10 mph77%29.78 "Hg10 mi
9:33 am76 °FMostly cloudy.14 mph80%29.79 "Hg10 mi
8:53 am75 °FMore clouds than sun.10 mph85%29.80 "Hg10 mi
7:53 am74 °FMostly cloudy.6 mph88%29.80 "Hg10 mi
7:23 am73 °FOvercast.6 mph90%29.77 "Hg10 mi
6:53 am72 °FPartly sunny.9 mph91%29.75 "Hg10 mi
6:38 am72 °FPartly sunny.10 mph91%29.75 "Hg10 mi
5:53 am72 °FPassing clouds.8 mph91%29.76 "Hg10 mi
4:57 am71 °FMostly cloudy.5 mph93%29.77 "Hg10 mi
3:53 am71 °FHigh level clouds.6 mph93%29.76 "Hg7 mi
Weather by CustomWeather, © 2019

See weather overview